• In Portugal
  • List of Countries
  • For 7 days
  • Water Temperature
  • Satellite Maps
  • Weather Map
  • Weather Widgets
  • user-avatar
    Login

    Hourly Weather Topkiy Rzhavec

    Today, 16 November, Friday

    Time Temperature Precipitation Wind Pressure Humidity
    00:00 -4°C° 0 mm 2 mps 759 mmHg 41%
    01:00 -4°C° 0 mm 2 mps 759 mmHg 38%
    02:00 -4°C° 0 mm 2 mps 759 mmHg 36%
    03:00 -4°C° 0 mm 2 mps 759 mmHg 34%
    04:00 -4°C° 0 mm 2 mps 760 mmHg 33%
    05:00 -4°C° 0 mm 2 mps 760 mmHg 31%
    06:00 -5°C° 0 mm 3 mps 760 mmHg 30%
    07:00 -5°C° 0 mm 3 mps 760 mmHg 30%
    08:00 -5°C° 0 mm 3 mps 761 mmHg 29%
    09:00 -4°C° 0 mm 3 mps 761 mmHg 27%
    10:00 -2°C° 0 mm 3 mps 761 mmHg 25%
    11:00 -1°C° 0 mm 3 mps 761 mmHg 23%
    12:00 -1°C° 0 mm 3 mps 761 mmHg 24%
    13:00 -1°C° 0 mm 3 mps 761 mmHg 24%
    14:00 +1°C° 0 mm 2 mps 761 mmHg 25%
    15:00 -1°C° 0 mm 2 mps 761 mmHg 26%
    16:00 -2°C° 0 mm 2 mps 761 mmHg 27%
    17:00 -3°C° 0 mm 2 mps 761 mmHg 28%
    18:00 -3°C° 0 mm 2 mps 761 mmHg 27%
    19:00 -3°C° 0 mm 2 mps 761 mmHg 27%
    20:00 -3°C° 0 mm 2 mps 761 mmHg 26%
    21:00 -3°C° 0 mm 2 mps 761 mmHg 25%
    22:00 -4°C° 0 mm 2 mps 761 mmHg 24%
    23:00 -4°C° 0 mm 2 mps 761 mmHg 23%

    Tomorrow, 17 November, Saturday

    Time Temperature Precipitation Wind Pressure Humidity
    00:00 -4°C° 0 mm 2 mps 761 mmHg 23%
    01:00 -2°C° 0 mm 1 mps 761 mmHg 22%
    02:00 -2°C° 0 mm 1 mps 761 mmHg 21%
    03:00 -2°C° 0 mm 1 mps 761 mmHg 21%
    04:00 -2°C° 0 mm 1 mps 760 mmHg 21%
    05:00 -2°C° 0 mm 1 mps 760 mmHg 20%
    06:00 -2°C° 0 mm 1 mps 760 mmHg 20%
    07:00 -2°C° 0 mm 1 mps 760 mmHg 20%
    08:00 -2°C° 0 mm 1 mps 760 mmHg 19%
    09:00 -1°C° 0 mm 1 mps 759 mmHg 18%
    10:00 0°C° 0 mm 1 mps 759 mmHg 17%
    11:00 +1°C° 0 mm 0 mps 758 mmHg 16%
    12:00 +2°C° 0 mm 1 mps 758 mmHg 17%
    13:00 +2°C° 0 mm 1 mps 757 mmHg 19%
    14:00 +2°C° 0 mm 1 mps 756 mmHg 20%
    15:00 -1°C° 0 mm 2 mps 756 mmHg 21%
    16:00 -2°C° 0 mm 2 mps 755 mmHg 22%
    17:00 -3°C° 0 mm 2 mps 754 mmHg 23%
    18:00 -3°C° 0 mm 2 mps 754 mmHg 24%
    19:00 -4°C° 0 mm 3 mps 753 mmHg 25%
    20:00 -4°C° 0 mm 3 mps 753 mmHg 26%
    21:00 -4°C° 0 mm 3 mps 752 mmHg 27%
    22:00 -4°C° 0 mm 3 mps 751 mmHg 29%
    23:00 -4°C° 0 mm 3 mps 751 mmHg 30%

    Day after tomorrow, 18 November, Sunday

    Time Temperature Precipitation Wind Pressure Humidity
    00:00 -3°C° 0 mm 4 mps 750 mmHg 33%
    01:00 -3°C° 0 mm 4 mps 749 mmHg 35%
    02:00 -3°C° 0 mm 4 mps 748 mmHg 37%
    03:00 -3°C° 0 mm 4 mps 747 mmHg 40%
    04:00 -3°C° 0 mm 4 mps 746 mmHg 43%
    05:00 -4°C° 0 mm 4 mps 746 mmHg 45%
    06:00 -4°C° 0.1 mm 4 mps 745 mmHg 52%
    07:00 -4°C° 0.1 mm 4 mps 745 mmHg 58%
    08:00 -4°C° 0.1 mm 4 mps 744 mmHg 64%
    09:00 -4°C° 0.1 mm 4 mps 744 mmHg 68%
    10:00 -3°C° 0.1 mm 4 mps 744 mmHg 71%
    11:00 -2°C° 0.1 mm 3 mps 744 mmHg 75%
    12:00 -2°C° 0 mm 3 mps 744 mmHg 75%
    13:00 -2°C° 0 mm 3 mps 744 mmHg 76%
    14:00 -2°C° 0 mm 3 mps 743 mmHg 77%
    15:00 -2°C° 0 mm 2 mps 743 mmHg 79%
    16:00 -2°C° 0 mm 2 mps 743 mmHg 81%
    17:00 -2°C° 0 mm 2 mps 743 mmHg 83%
    18:00 -2°C° 0 mm 2 mps 744 mmHg 85%
    19:00 -3°C° 0 mm 2 mps 744 mmHg 87%
    20:00 -3°C° 0 mm 2 mps 744 mmHg 88%
    21:00 -1°C° 0 mm 1 mps 744 mmHg 89%
    22:00 -1°C° 0 mm 1 mps 744 mmHg 90%
    23:00 -1°C° 0 mm 1 mps 745 mmHg 91%

    19 November, Monday

    Time Temperature Precipitation Wind Pressure Humidity
    00:00 -1°C° 0.1 mm 1 mps 745 mmHg 91%
    01:00 -1°C° 0.1 mm 1 mps 745 mmHg 90%
    02:00 -1°C° 0.1 mm 1 mps 746 mmHg 90%
    03:00 -1°C° 0.1 mm 1 mps 746 mmHg 89%
    04:00 -1°C° 0.1 mm 1 mps 746 mmHg 88%
    05:00 -1°C° 0.1 mm 1 mps 746 mmHg 87%
    06:00 -1°C° 0.1 mm 1 mps 747 mmHg 84%
    07:00 -3°C° 0.1 mm 2 mps 747 mmHg 81%
    08:00 -3°C° 0.1 mm 2 mps 748 mmHg 77%
    09:00 -3°C° 0 mm 2 mps 748 mmHg 70%
    10:00 -2°C° 0 mm 2 mps 749 mmHg 62%
    11:00 -2°C° 0 mm 2 mps 749 mmHg 54%
    12:00 -2°C° 0 mm 2 mps 750 mmHg 53%
    13:00 -1°C° 0 mm 2 mps 750 mmHg 52%
    14:00 -1°C° 0 mm 2 mps 750 mmHg 52%
    15:00 -2°C° 0 mm 2 mps 751 mmHg 54%
    16:00 -4°C° 0 mm 3 mps 751 mmHg 56%
    17:00 -4°C° 0 mm 3 mps 751 mmHg 58%
    18:00 -4°C° 0 mm 3 mps 751 mmHg 58%
    19:00 -5°C° 0 mm 3 mps 752 mmHg 58%
    20:00 -5°C° 0 mm 3 mps 752 mmHg 58%
    21:00 -4°C° 0 mm 3 mps 752 mmHg 58%
    22:00 -4°C° 0 mm 3 mps 753 mmHg 59%
    23:00 -4°C° 0 mm 3 mps 753 mmHg 59%

    20 November, Tuesday

    Time Temperature Precipitation Wind Pressure Humidity
    00:00 -4°C° 0 mm 3 mps 753 mmHg 59%
    01:00 -4°C° 0 mm 3 mps 753 mmHg 59%
    02:00 -4°C° 0 mm 3 mps 753 mmHg 59%
    03:00 -4°C° 0 mm 3 mps 753 mmHg 60%
    04:00 -4°C° 0 mm 3 mps 753 mmHg 60%
    05:00 -5°C° 0 mm 3 mps 753 mmHg 60%
    06:00 -4°C° 0 mm 3 mps 753 mmHg 58%
    07:00 -4°C° 0 mm 3 mps 753 mmHg 57%
    08:00 -4°C° 0 mm 3 mps 753 mmHg 56%
    09:00 -2°C° 0 mm 3 mps 753 mmHg 53%
    10:00 -3°C° 0 mm 4 mps 753 mmHg 51%
    11:00 -2°C° 0 mm 4 mps 753 mmHg 49%
    12:00 -2°C° 0 mm 4 mps 753 mmHg 52%
    13:00 -1°C° 0 mm 3 mps 753 mmHg 54%
    14:00 -1°C° 0 mm 3 mps 753 mmHg 57%
    15:00 -2°C° 0 mm 3 mps 752 mmHg 61%
    16:00 -2°C° 0 mm 3 mps 752 mmHg 64%
    17:00 -4°C° 0 mm 3 mps 752 mmHg 68%
    18:00 -4°C° 0 mm 3 mps 752 mmHg 69%
    19:00 -4°C° 0 mm 3 mps 752 mmHg 71%
    20:00 -4°C° 0 mm 3 mps 752 mmHg 73%
    21:00 -5°C° 0 mm 3 mps 752 mmHg 73%
    22:00 -5°C° 0 mm 3 mps 752 mmHg 73%
    23:00 -5°C° 0 mm 3 mps 752 mmHg 73%

    21 November, Wednesday

    Time Temperature Precipitation Wind Pressure Humidity
    00:00 -5°C° 0 mm 3 mps 751 mmHg 71%
    01:00 -5°C° 0 mm 3 mps 751 mmHg 70%
    02:00 -5°C° 0 mm 3 mps 751 mmHg 68%
    03:00 -5°C° 0 mm 3 mps 750 mmHg 66%
    04:00 -5°C° 0 mm 3 mps 750 mmHg 63%
    05:00 -5°C° 0 mm 3 mps 750 mmHg 61%
    06:00 -5°C° 0 mm 3 mps 750 mmHg 60%
    07:00 -5°C° 0 mm 4 mps 749 mmHg 58%
    08:00 -5°C° 0 mm 4 mps 749 mmHg 57%
    09:00 -4°C° 0 mm 4 mps 749 mmHg 56%
    10:00 -3°C° 0 mm 4 mps 748 mmHg 55%
    11:00 -2°C° 0 mm 5 mps 748 mmHg 55%
    12:00 -2°C° 0 mm 5 mps 748 mmHg 56%
    13:00 -2°C° 0 mm 5 mps 747 mmHg 57%
    14:00 -2°C° 0 mm 5 mps 747 mmHg 58%
    15:00 -2°C° 0 mm 5 mps 746 mmHg 59%
    16:00 -4°C° 0 mm 5 mps 746 mmHg 59%
    17:00 -4°C° 0 mm 5 mps 746 mmHg 60%
    18:00 -4°C° 0 mm 5 mps 745 mmHg 61%
    19:00 -4°C° 0 mm 6 mps 745 mmHg 62%
    20:00 -4°C° 0 mm 6 mps 745 mmHg 63%
    21:00 -4°C° 0.3 mm 6 mps 744 mmHg 69%
    22:00 -4°C° 0.3 mm 6 mps 744 mmHg 74%
    23:00 -4°C° 0.3 mm 6 mps 744 mmHg 79%
    Show more